Weather History for Winslow, AZ

Change the Weather History Date:

Saturday, January 28, 2012

  Actual Average Record
Temperature  
Mean Temperature 32 °F 37 °F  
Max Temperature 51 °F 52 °F 64 °F (2003)
Min Temperature 13 °F 22 °F -9 °F (1937)
Degree Days  
Heating Degree Days 33 28  
Month to date heating degree days 772 840  
Since 1 July heating degree days 2640 2718  
Cooling Degree Days 0 0  
Month to date cooling degree days 0 0  
Year to date cooling degree days 0 0  
Moisture  
Dew Point 5 °F    
Average Humidity 37    
Maximum Humidity 59    
Minimum Humidity 14    
Precipitation  
Precipitation 0.00 in 0.01 in 0.13 in (1994)
Month to date precipitation 0.05 0.47  
Year to date precipitation 0.05 0.47  
Sea Level Pressure  
Sea Level Pressure 30.45 in    
Wind  
Wind Speed 6 mph (WNW)    
Max Wind Speed 14 mph    
Max Gust Speed 17 mph    
Visibility 10 miles    
Events      
T = Trace of Precipitation, MM = Missing Value Source: NWS Daily Summary

Daily Weather History Graph

Daily Weather History Graph

Search for Another Location

Airport:

Trip Planner

Search our weather history database for the weather conditions in past years. The results will help you decide how hot, cold, wet, or windy it might be!

Date:

Astronomy

Jan. 28, 2012 Rise Set
Actual Time 7:24 AM MST 5:47 PM MST
Civil Twilight 6:57 AM MST 6:14 PM MST
Nautical Twilight 6:27 AM MST 6:44 PM MST
Astronomical Twilight 5:57 AM MST 7:14 PM MST
Moon 10:04 AM MST (1/28) 11:21 PM MST (1/28)
Length of Visible Light 11h 16m
Length of Day
10h 22m
Waxing Crescent, 28% of the Moon is Illuminated
Jan 28
Waxing Crescent
Jan 30
First Quarter
Feb 7
Full
Feb 14
Last Quarter
Feb 21
New

Hourly Weather History & Observations

Time (MST) Temp. Windchill Dew Point Humidity Pressure Visibility Wind Dir Wind Speed Gust Speed Precip Events Conditions
12:56 AM 28.4 °F 19.7 °F 5.0 °F 37% 30.32 in 10.0 mi West 9.2 mph - N/A   Clear
1:56 AM 28.9 °F 21.1 °F 6.1 °F 38% 30.31 in 10.0 mi NW 8.1 mph - N/A   Clear
2:56 AM 24.8 °F - 5.0 °F 43% 30.35 in 10.0 mi Calm Calm - N/A   Clear
3:56 AM 23.0 °F - 5.0 °F 46% 30.36 in 10.0 mi Calm Calm - N/A   Clear
4:56 AM 18.0 °F 12.7 °F 3.0 °F 52% 30.42 in 10.0 mi WNW 3.5 mph - N/A   Clear
5:56 AM 16.0 °F 10.4 °F 3.0 °F 57% 30.45 in 10.0 mi WSW 3.5 mph - N/A   Clear
6:56 AM 15.1 °F 6.4 °F 3.0 °F 59% 30.47 in 10.0 mi SW 5.8 mph - N/A   Clear
7:56 AM 23.0 °F 18.4 °F 7.0 °F 50% 30.50 in 10.0 mi NW 3.5 mph - N/A   Clear
8:56 AM 28.9 °F - 8.1 °F 41% 30.51 in 10.0 mi Calm Calm - N/A   Clear
9:56 AM 33.1 °F 26.1 °F 9.0 °F 37% 30.51 in 10.0 mi NW 8.1 mph - N/A   Clear
10:56 AM 39.0 °F 33.4 °F 10.9 °F 32% 30.52 in 10.0 mi North 8.1 mph - N/A   Clear
11:56 AM 43.0 °F 38.2 °F 10.9 °F 27% 30.48 in 10.0 mi NNW 8.1 mph - N/A   Clear
12:56 PM 45.0 °F 40.1 °F 10.9 °F 25% 30.44 in 10.0 mi North 9.2 mph - N/A   Clear
1:56 PM 48.0 °F - 9.0 °F 21% 30.41 in 10.0 mi NW 9.2 mph - N/A   Clear
2:56 PM 48.9 °F - 6.1 °F 18% 30.41 in 10.0 mi NW 6.9 mph - N/A   Clear
3:56 PM 50.0 °F - 3.9 °F 15% 30.42 in 10.0 mi North 6.9 mph - N/A   Clear
4:56 PM 48.9 °F - 1.0 °F 14% 30.43 in 10.0 mi NW 9.2 mph - N/A   Clear
5:56 PM 41.0 °F 36.4 °F 1.9 °F 20% 30.47 in 10.0 mi WNW 6.9 mph - N/A   Clear
6:56 PM 37.0 °F 31.0 °F 3.9 °F 25% 30.51 in 10.0 mi WNW 8.1 mph - N/A   Clear
7:56 PM 28.9 °F 21.1 °F 1.9 °F 32% 30.52 in 10.0 mi West 8.1 mph - N/A   Clear
8:56 PM 28.9 °F - 1.0 °F 30% 30.52 in 10.0 mi Calm Calm - N/A   Clear
9:56 PM 24.1 °F - -0.0 °F 35% 30.53 in 10.0 mi Calm Calm - N/A   Clear
10:56 PM 21.9 °F 11.7 °F -0.0 °F 38% 30.52 in 10.0 mi SW 9.2 mph - N/A   Clear
11:56 PM 21.0 °F 11.4 °F -0.0 °F 40% 30.51 in 10.0 mi SSW 8.1 mph - N/A   Clear